Location: Iwkowa
(49.8210°N, 20.5761°E)
Time: 22:08:52
(UTC+01:00)

ISS - Pass Details

Date: 25 January 2019
Orbit: 403 x 411 km, 51.6° (Epoch: 20 February)

Event Time Altitude Azimuth Distance (km) Brightness Sun altitude
Rises 16:53:00 0° 195° (SSW) 2,321 0.6 -5.6°
Reaches altitude 10° 16:55:53 10° 167° (SSE) 1,468 -0.9 -6.0°
Maximum altitude 16:57:32 13° 137° (SE) 1,292 -1.5 -6.3°
Drops below altitude 10° 16:59:11 10° 107° (ESE) 1,476 -1.4 -6.5°
Enters shadow 17:00:14 - 94° (E) 1,736 -1.2 -6.7°
